Weather History for Waco, TX

Change the Weather History Date:

Tuesday, October 1, 2013

  Actual Average Record
Temperature  
Mean Temperature 76 °F 73 °F  
Max Temperature 89 °F 85 °F 100 °F (1977)
Min Temperature 63 °F 61 °F 42 °F (1939)
Degree Days  
Heating Degree Days 0 1  
Month to date heating degree days 0 1  
Since 1 July heating degree days 0 7  
Cooling Degree Days 11 8  
Month to date cooling degree days 11 8  
Year to date cooling degree days 2718 2602  
Growing Degree Days 26 (Base 50)    
Moisture  
Dew Point 66 °F    
Average Humidity 72    
Maximum Humidity 100    
Minimum Humidity 44    
Precipitation  
Precipitation 0.00 in 0.11 in 3.05 in (2004)
Month to date precipitation 0.00 0.11  
Year to date precipitation 26.86 25.33  
Sea Level Pressure  
Sea Level Pressure 29.88 in    
Wind  
Wind Speed 7 mph (SSE)    
Max Wind Speed 14 mph    
Max Gust Speed 17 mph    
Visibility 8 miles    
Events Fog    
T = Trace of Precipitation, MM = Missing Value Source: NWS Daily Summary

Daily Weather History Graph

Daily Weather History Graph

Search for Another Location

Airport:

Trip Planner

Search our weather history database for the weather conditions in past years. The results will help you decide how hot, cold, wet, or windy it might be!

Date:

Astronomy

Oct. 01, 2013 Rise Set
Actual Time 7:22 AM CDT 7:13 PM CDT
Civil Twilight 6:58 AM CDT 7:37 PM CDT
Nautical Twilight 6:30 AM CDT 8:05 PM CDT
Astronomical Twilight 6:02 AM CDT 8:34 PM CDT
Moon 4:09 AM CDT (10/1) 5:09 PM CDT (10/1)
Length of Visible Light 12h 39m
Length of Day
11h 50m
Waning Crescent, 12% of the Moon is Illuminated
Oct 1
Waning Crescent
Oct 4
New
Oct 11
First Quarter
Oct 18
Full
Oct 26
Last Quarter

Hourly Weather History & Observations

Time (CDT) Temp. Heat Index Dew Point Humidity Pressure Visibility Wind Dir Wind Speed Gust Speed Precip Events Conditions
12:51 AM 64.9 °F - 62.1 °F 90% 29.83 in 10.0 mi SSW 5.8 mph - N/A   Clear
1:51 AM 66.0 °F - 61.0 °F 84% 29.83 in 10.0 mi SSW 4.6 mph - N/A   Clear
2:51 AM 64.9 °F - 61.0 °F 87% 29.83 in 10.0 mi Calm Calm - N/A   Clear
3:51 AM 64.9 °F - 60.1 °F 84% 29.83 in 10.0 mi South 6.9 mph - N/A   Clear
4:51 AM 66.9 °F - 60.1 °F 79% 29.84 in 10.0 mi South 6.9 mph - N/A   Clear
5:03 AM 66.2 °F - 60.8 °F 83% 29.86 in 10.0 mi SSE 4.6 mph - N/A   Partly Cloudy
5:37 AM 68.0 °F - 64.4 °F 88% 29.87 in 10.0 mi South 5.8 mph - N/A   Partly Cloudy
5:51 AM 64.0 °F - 60.1 °F 87% 29.86 in 10.0 mi Calm Calm - N/A   Partly Cloudy
6:14 AM 66.2 °F - 62.6 °F 88% 29.88 in 10.0 mi South 6.9 mph - N/A   Mostly Cloudy
6:26 AM 69.8 °F - 69.8 °F 100% 29.88 in 3.0 mi South 6.9 mph - N/A   Overcast
6:51 AM 66.0 °F - 62.1 °F 87% 29.88 in 10.0 mi SE 3.5 mph - N/A   Overcast
7:36 AM 66.2 °F - 66.2 °F 100% 29.90 in 1.8 mi ESE 8.1 mph - N/A   Overcast
7:51 AM 66.9 °F - 66.0 °F 97% 29.89 in 0.5 mi SE 8.1 mph - N/A Fog Fog
8:05 AM 68.0 °F - 66.2 °F 94% 29.91 in 0.2 mi SE 10.4 mph - N/A Fog Fog
8:51 AM 69.1 °F - 68.0 °F 96% 29.91 in 0.5 mi SSE 8.1 mph - N/A Fog Fog
9:26 AM 69.8 °F - 69.8 °F 100% 29.93 in 1.0 mi SSE 8.1 mph - N/A   Overcast
9:51 AM 72.0 °F - 70.0 °F 93% 29.92 in 6.0 mi SSE 10.4 mph - N/A   Overcast
10:09 AM 71.6 °F - 69.8 °F 94% 29.95 in 10.0 mi SSE 12.7 mph - N/A   Overcast
10:34 AM 73.4 °F - 69.8 °F 88% 29.95 in 10.0 mi SSE 10.4 mph - N/A   Overcast
10:51 AM 75.0 °F - 70.0 °F 84% 29.94 in 10.0 mi SSE 10.4 mph - N/A   Overcast
11:10 AM 75.2 °F - 69.8 °F 83% 29.95 in 10.0 mi SE 10.4 mph - N/A   Overcast
11:51 AM 79.0 °F - 70.0 °F 74% 29.93 in 10.0 mi SSE 9.2 mph - N/A   Scattered Clouds
12:51 PM 82.0 °F 85.9 °F 70.0 °F 67% 29.92 in 10.0 mi SSE 8.1 mph - N/A   Partly Cloudy
1:51 PM 84.9 °F 88.8 °F 69.1 °F 59% 29.89 in 10.0 mi SSE 9.2 mph - N/A   Clear
2:51 PM 87.1 °F 88.9 °F 64.9 °F 48% 29.87 in 10.0 mi SSE 9.2 mph - N/A   Partly Cloudy
3:51 PM 88.0 °F 89.6 °F 64.9 °F 46% 29.85 in 10.0 mi SSE 9.2 mph - N/A   Partly Cloudy
4:51 PM 89.1 °F 90.3 °F 64.0 °F 43% 29.84 in 10.0 mi SSE 10.4 mph - N/A   Partly Cloudy
5:51 PM 88.0 °F 89.3 °F 64.0 °F 45% 29.83 in 10.0 mi South 6.9 mph - N/A   Mostly Cloudy
6:51 PM 82.0 °F 84.5 °F 66.9 °F 60% 29.83 in 10.0 mi SSE 4.6 mph - N/A   Clear
7:51 PM 79.0 °F - 66.9 °F 66% 29.85 in 10.0 mi ESE 3.5 mph - N/A   Clear
8:51 PM 79.0 °F - 70.0 °F 74% 29.87 in 10.0 mi ESE 6.9 mph - N/A   Mostly Cloudy
9:51 PM 79.0 °F - 71.1 °F 77% 29.89 in 10.0 mi SE 9.2 mph - N/A   Clear
10:51 PM 78.1 °F - 70.0 °F 76% 29.90 in 10.0 mi SE 10.4 mph - N/A   Clear
11:51 PM 75.9 °F - 70.0 °F 82% 29.91 in 10.0 mi SSE 8.1 mph - N/A   Clear